Погода Земетчино

Погода Земетчино : погода сейчас, прогноз погоды и архив. Всё, что Вы хотите узнать о погоде Земетчино!

Поиск расширенной информации на нашем сайте:

Другие новости

Новости СМИ2

Главная страница сайта

Новости сайта

03.07.2017

Напоминаем, что на нашем специализированном сайте Метеоцентр.Азия вы можете получить высокодетализированные автоматические прогнозы погоды по пунктам России, СНГ и мира в авиационном формате (включающие направление и скорость ветра, видимость, явления погоды, количество и форму облачности, нижнюю и верхнюю границу облачности).


Погода Земетчино - сегодня

Время (UTC), дата Ветер
(°,м/с) 
Видим.   Явления Облачность Т
(°С)
Тd
(°С)
f(%) Тe
(°С)
Pmin
(гПа)
dP
(гПа)
Po
(мм)
O2
(г/м3)
Тmin Tmax R s Состояние
почвы
12 20.10.17 340 (С) 20000 м    8/6 600 м средняя, верхняя 
[Sc|Ac As|Ci fib]
+8.1 +0.2 57 +7  1019.8  -0.2  753  295           
15 20.10.17 290 (З) 10 км    9/9 600 м 
[Sc]
+5.7 +0.5 69 +7  1020.4  0.4  753  297    +8.4       
18 20.10.17 300 (СЗ) 10 км    10/10 960 м 
[Sc]
+4.8 +0.9 76 +6  1020.9  0.4  753  298           
21 20.10.17 тихо ()   10 км    10/10 960 м 
[Sc]
+2.3 +0.9 90 +2  1020.7  0.4  753  301           
00 21.10.17 250 (З) 10 км    ясно 
-1 -1.5 96 1020.6  -0.3  753  305           
03 21.10.17 тихо ()   10 км    8/8 600 м 
[Sc]
-1.9 -2.1 99 -2  1020.3  -0.4  753  306  -2.1        замёрзшая 
06 21.10.17 тихо ()   20000 м  в посл. час ливневой снег  9/5 600 м кучево-дожд., средняя 
[Cb calv|Ac trans]
+0.7 +0.3 97 +1  1020  0.1  753  302           
09 21.10.17 040 (СВ) 20000 м    9/4 600 м кучево-дожд., средняя 
[Cb calv|Ac trans]
+3.8 +1.8 87 +5  1019.1  -0.8  752  299           
12 21.10.17 360 (С) 20000 м    8/8 600 м кучево-дожд. 
[Cb calv]
+4.8 +2.1 83 +4  1017.6  -1.4  751  297           
15 21.10.17 260 (З) 10 км    6/3 600 м кучево-дожд., средняя 
[Cb calv|Ac trans]
+1 +0.4 96 +2  1017.6  -0.2  751  301    +5.1  0.0     
18 21.10.17 300 (СЗ) 10 км    3/0 средняя 
[Ac trans]
+0 -0.4 97 +1  1017.6  -0.2  751  303           
21 21.10.17 290 (З) 4000 м  дымка  3/0 верхняя 
[Ci fib]
-1.8 -1.9 99 -1  1017.5  -0.2  751  305           
00 22.10.17 тихо ()   4000 м  дымка  10/10 750 м 
[Sc]
-0.7 -0.8 99 -1  1016.8  -0.7  750  303           
03 22.10.17 360 (С) 10 км  {ливн. осадки}  10/10 630 м кучево-дожд. 
[Cb calv]
+0.1 -0.1 99 +1  1016.4  -0.3  750  302  -2.3    0.0    замёрзшая 
06 22.10.17 340 (С) 20000 м  {ливн. осадки}  10/10 600 м кучево-дожд. 
[Cb calv]
+0.9 +0.2 95 1016.7  0.3  750  301           
09 22.10.17 тихо ()   10 км  слаб. ливневой снег  10/10 630 м кучево-дожд. 
[Cb calv]
+2.2 +0.2 87 +2  1016.7  -0.2  750  300           
12 22.10.17 350 (С) 20000 м  {ливн. осадки}  8/8 600 м кучево-дожд. 
[Cb calv]
+2.1 +0.9 92 +1  1016.6  0.1  750  300           
15 22.10.17 350 (С) 10 км    4/4 600 м кучево-дожд. 
[Cb calv]
-1.4 -2.4 93 -2  1018.4  1.5  751  305    +2.4  0.5     
18 22.10.17 290 (З) 10 км    ясно 
-3.2 -3.8 96 -3  1019.4  0.9  752  307           
21 22.10.17 250 (З) 10 км    ясно 
-4.8 -5.6 94 -4  1019.7  0.2  752  309           
00 23.10.17 270 (З) 10 км    ясно 
-5.6 -6.1 96 -5  1019.9  0.2  752  310           
03 23.10.17 230 (ЮЗ) 10 км    3/0 средняя 
[Ac trans]
-4.9 -5.7 94 -4  1020  0.1  752  309  -6.2        замёрзшая 
06 23.10.17 240 (ЮЗ) 20000 м    9/0 верхняя 
[Cc]
-2.5 -3.6 92 -5  1020.4  0.5  753  307           
09 23.10.17 240 (ЮЗ) 20000 м    9/9 600 м 
[Sc]
+0.8 -2 82 -1  1020  -0.3  753  303           
12 23.10.17 320 (СЗ) 20000 м    9/9 600 м 
[Sc]
+2.2 -2.2 73 +1  1020.4  0.5  753  301           
Время (UTC), дата Ветер
(°,м/с) 
Видим.   Явления Облачность Т
(°С)
Тd
(°С)
f(%) Тe
(°С)
Pmin
(гПа)
dP
(гПа)
Po
(мм)
O2
(г/м3)
Тmin Tmax R s Состояние
почвы

Для получения пояснительной информации подведите курсор к названию столбца.

ПОГОДА Земетчино - архив

Всё, что Вы хотите узнать о погоде Земетчино - удобно и подробно!

Выберите нужную дату (начиная с 1 января 2015* года) и нажмите кнопку "Найти".
Будут отображены архивные сводки погоды по пункту Земетчино, начиная с указанной даты.


Отображать данные в формате CSV (для использования в таблицах Excel)


Внимание! Наш архив погоды предназначен исключительно для личного некоммерческого использования в познавательных целях. Если Вам необходимы официальные справки о состоянии погоды (для производственных, юридических, коммерческих и т.п. целей), обращайтесь в органы Росгидромета.

*Примечание: данная дата относится к архиву по метеостанциям СССР (Россия, СНГ, Балтия).
Архив по метеостанциям Зарубежной Европы и Азии (кроме Китая) хранится 10 дней, по другим регионам земного шара (Китай, Африка, Америка, Австралия, Океания) - 1 день.

Земетчино - район местоположения метеостанции


Название, широта, долгота, высота метеостанции:
Земетчино 53.5°ш. 42.6°д. 131 м над ур. моря [Российская Федерация]

Дополнительная информация

В oтличие oт бoльшинства пoгoдных сайтoв мы публикуем пoдрoбную метеoинфoрмацию в детальнoм прoфессиoнальнoм фoрмате.

Характеристики температуры и влажнoсти вoздуха измеряются на высoте 2 м в тени вдали oт зданий и деревьев.
Скoрoсть ветра измеряется на высoте 10 м (на урoвне рoста челoвека скoрoсть ветра ниже в 1.5-2 раза). Если метеoстанция нахoдится в гoрoде или в лесу, тo скoрoсть ветра занижена на 2-4 м/с пo сравнению с oткрытым местoм. Скoрoсть ветра над акватoриями крупных рек и oзёр, а также на вершинах хoлмoв на 2-5 м/с выше, чем в oбычных услoвиях.
Атмoсфернoе давление в разных тoчках местнoсти мoжет значительнo oтличаться oт давления на метеoстанции, в зависимoсти oт услoвий рельефа (при пoдъёме на 10 м давление пoнижается примернo на 1 мм рт.ст.).